SL-12 DEB, 41562

Orbit data source: Space-Track

SL-12 DEB, 41562 is space debris in HEO originally from a launch on Thu, 25 Dec 2008 UTC launched from the Tyuratam Missile And Space Complex (TTMTR). Debris objects in space refer to the collection of defunct objects orbiting the Earth. Examples of debris include non-operational satellites, rocket bodies, and fragments generated from explosions, collisions, or faulty payload assembly.

Loading next visibility...
SL-12 DEB details
Identifier
41562, 2008-067L
Orbit
HEO
Last TLE update1 week ago
Origin
Flag of CISVVKO VKS (CIS)
ManufacturerRKKE
MissionSpacecraft
Bus & MotorUnknown
MassUnknown
Launch date (UTC)
2008-12-25 (16 years ago)
Launch vehicleUnknown
Launch site
Tyuratam Missile And Space Complex (TTMTR)
Object type
Payload
Rocket body
Debris
Shape & HBRUnknown
Radar Cross SectionSmall (<0.1 m²)

Expand to show TLE details & history

TLE from 1 week ago
0 SL-12 DEB
1 41562U 08067L   24353.17282239  .00000234  00000-0  39631-2 0  9993
2 41562  65.4550  30.4477 5584886 270.4035  29.3000  4.21067315133982
Epoch: 2024-12-18T04:08Z
Definitive object data (Epoch: 2024-12-18T04:08:51.854Z)
Latitude0.00002°
Longitude-119.01953°
Altitude4,735.633 km
Speed6.866 km/s
True Right ascension02h 01m 52s
True Declination0° 00' 00"
Sunlit
Object was in daylight at TLE epoch
Visualization TLE readout
Latitude65.20723°
Longitude-40.9958°
Altitude18,813.974 km
Speed2.656 km/s
Apparent Right ascension05h 34m 19s
Apparent Declination58° 13' 30"
Sunlit
Object is in daylight
Visualization observer readout
Local Sidereal Time13:12:53
Azimuth328.884° NNW
Elevation22.154°
Doppler factor1
Orbital elements
Apogee altitude18,866.779 km
Perigee altitude773.611 km
Semi-major axis16,198.332 km
Eccentricity0.5584886
Inclination65.455°
RAAN30.4477°
Arg. of periapsis270.4035°
True anomaly89.63946°
Mean anomaly29.3°
Eccentric anomaly55.75011°
Mean motion1.05278 °/min
BSTAR0.0039631
Orbital period341.95 mins
Loading maneuver chart data...
Loading historical data...
Loading historical data...
Loading historical data...
Loading historical data...
Loading historical data...
Loading historical data...
Loading historical data...

SL-12 DEB Visibility forecast

Observer location: undefined°, undefined

Span
Click to sort rows by Start time (UTC) header in descending order
Start Az.
Max El. time (UTC)
Max El. Az.
Max El.
End time (UTC)
End Az.
152 mins2024-12-26 13:51:09.136Z328.869° NNW2024-12-26 15:37:09.136Z290.208° WNW35.092°2024-12-26 16:23:09.136Z223.292° SW
151 mins2024-12-26 23:17:09.136Z95.775° ESE2024-12-27 00:09:09.136Z51.771° ENE24.214°2024-12-27 01:48:09.136Z24.901° NE
260 mins2024-12-27 04:48:09.136Z229.796° WSW2024-12-27 05:44:09.136Z310.068° NW42.726°2024-12-27 09:08:09.136Z82.25° E
128 mins2024-12-27 11:43:09.136Z320.443° NNW2024-12-27 13:51:09.136Z317.592° NNW38.095°2024-12-27 13:51:09.136Z317.592° NNW
|